[[{"header":{"parameterUnit":"m.s-1","parameterCategory":1,"la1":30.2991,"la2":30.254,"lo1":-89.0895,"lo2":-89.0444,"dy":0.0017,"dx":0.0017,"nx":28,"ny":28,"refTime":"2025-07-28T03:00:00:Z","depth":0,"parameterNumber":2,"parameterNumberName":"U-component_of_WINDS"},"data":[0,0,0,0,0,0,0,0,0,0,0,0,0,0,0,0,0,0,0,0,0,0,0,0,0,0,0,0,0,0,0,0,0,0,0,0,0,0,0,0,0,0,0,0,0,0,0,0,0,0,0,0,0,0,0,0,0,0,-0.8427,-0.8425,0,-0.8273,-0.8271,-0.827,-0.8226,-0.8227,-0.8228,-0.8229,-0.8061,-0.8055,-0.805,0,0,0,0,0,0,0,0,0,0,0,0,0,-0.8671,-0.8667,-0.8427,-0.8425,-0.8423,-0.8274,-0.8271,-0.8269,-0.8226,-0.8227,-0.8228,-0.8229,-0.8062,-0.8056,-0.805,0,0,0,0,0,0,0,0,0,0,0,0,0,-0.8546,-0.8665,-0.8427,-0.8384,-0.8378,-0.8274,-0.8271,-0.8269,-0.8226,-0.8227,-0.8228,-0.8229,-0.8064,-0.8057,-0.8049,-0.7974,0,0,-0.8025,-0.8021,0,0,0,0,0,0,0,0,-0.8553,-0.8537,-0.8392,-0.8386,-0.838,-0.827,-0.8296,-0.8169,-0.8225,-0.8283,-0.8229,-0.823,-0.8129,-0.8115,-0.8083,-0.7966,-0.7959,-0.8024,-0.8019,-0.8016,-0.8013,0,0,0,0,0,0,0,-0.8562,-0.8543,-0.8366,-0.839,-0.8382,-0.8368,-0.8352,-0.8272,-0.82,-0.8278,-0.8275,-0.8258,-0.8125,-0.8091,-0.8079,-0.7956,-0.8024,-0.8017,-0.8012,-0.8009,-0.7766,-0.7765,0,0,0,0,0,0,-0.8579,-0.8551,-0.8371,-0.8361,-0.8472,-0.8363,-0.8344,-0.8304,-0.8201,-0.8187,-0.8257,-0.8256,-0.8104,-0.8088,-0.8073,-0.7976,-0.8016,-0.8008,-0.8004,-0.7768,-0.7766,-0.7764,0,0,0,0,0,0,-0.8585,-0.8564,-0.8377,-0.8455,-0.843,-0.8357,-0.8312,-0.83,-0.8266,-0.8185,-0.8171,-0.8236,-0.8104,-0.8084,-0.7999,-0.797,-0.8005,-0.7997,-0.777,-0.7767,-0.7765,-0.7784,0,0,0,0,0,0,-0.8592,-0.8566,-0.8539,-0.8455,-0.8426,-0.8308,-0.831,-0.8296,-0.8254,-0.8252,-0.8161,-0.8147,-0.8104,-0.8011,-0.7991,-0.796,-0.7991,-0.7772,-0.7769,-0.7766,-0.7785,-0.7782,-0.7779,0,0,0,0,0,-0.8601,-0.8549,-0.8538,-0.8517,-0.8392,-0.8307,-0.829,-0.8245,-0.8252,-0.8222,-0.817,-0.815,-0.7977,-0.8003,-0.798,-0.7946,-0.7774,-0.777,-0.7766,-0.7786,-0.7783,-0.7779,0,0,0,0,0,0,-0.8628,-0.8537,-0.8524,-0.8444,-0.8384,-0.83,-0.8262,-0.8242,-0.8176,-0.8176,-0.8119,-0.8099,-0.8017,-0.7973,-0.8003,-0.7866,-0.7874,-0.7866,-0.7898,-0.7894,-0.7891,-0.7902,-0.7985,0,0,0,0,0,-0.8625,-0.8568,-0.849,-0.8426,-0.8397,-0.8335,-0.8296,-0.8267,-0.82,-0.8174,-0.8115,-0.8049,-0.7979,-0.7934,-0.7866,-0.7779,-0.7757,-0.7744,-0.7742,-0.774,-0.7732,-0.768,-0.7673,-0.7751,-0.7751,-0.7752,0,0,-0.8618,-0.8561,-0.8527,-0.843,-0.838,-0.8318,-0.8314,-0.8248,-0.82,-0.8162,-0.8079,-0.8034,-0.7955,-0.7869,-0.7828,-0.7829,-0.7705,-0.7735,-0.7734,-0.7727,-0.7675,-0.7668,-0.7661,-0.7749,-0.7749,-0.775,0,0,-0.8572,-0.8525,-0.8466,-0.8417,-0.8343,-0.8301,-0.8287,-0.8206,-0.8175,-0.8092,-0.8061,-0.8002,-0.7884,-0.7829,-0.7786,-0.7719,-0.7697,-0.7698,-0.7682,-0.7632,-0.7626,-0.762,-0.7593,-0.7585,-0.7692,-0.7692,-0.7692,0,-0.8571,-0.848,-0.8437,-0.8374,-0.833,-0.8297,-0.8235,-0.8188,-0.8093,-0.8062,-0.8067,-0.7918,-0.7863,-0.7762,-0.7746,-0.7713,-0.7692,-0.7707,-0.7631,-0.7625,-0.7618,-0.7592,-0.7583,-0.7692,-0.7692,-0.7692,-0.7692,0,-0.8481,-0.8418,-0.8379,-0.8292,-0.8244,-0.8182,-0.8126,-0.8082,-0.8057,-0.8014,-0.7927,-0.7861,-0.7777,-0.7752,-0.7725,-0.7646,-0.7649,-0.7643,-0.765,-0.7612,-0.7586,-0.7576,-0.7693,-0.7693,-0.7692,-0.7692,0,0,-0.8446,-0.8338,-0.8324,-0.8284,-0.8199,-0.8148,-0.8082,-0.8004,-0.7966,-0.7902,-0.7843,-0.7745,-0.7739,-0.7689,-0.7656,-0.7613,-0.7561,-0.7612,-0.7609,-0.7602,-0.7466,-0.747,-0.7459,-0.7548,-0.7546,-0.7544,-0.7472,0,-0.8388,-0.8274,-0.8233,-0.8137,-0.8076,-0.8044,-0.7986,-0.7926,-0.7884,-0.7824,-0.7776,-0.7706,-0.7705,-0.7675,-0.7631,-0.7577,-0.7533,-0.7582,-0.7488,-0.7485,-0.7506,-0.7446,-0.7449,-0.7385,-0.7462,-0.746,-0.7459,0,-0.8304,-0.8243,-0.8142,-0.8064,-0.8037,-0.7986,-0.791,-0.7855,-0.7784,-0.7757,-0.7703,-0.7672,-0.7598,-0.7612,-0.7507,-0.7542,-0.7501,-0.7468,-0.7465,-0.7451,-0.7468,-0.7428,-0.7363,-0.7352,-0.7443,-0.7445,-0.7446,0,-0.8286,-0.8177,-0.8102,-0.8069,-0.7977,-0.7942,-0.7901,-0.7833,-0.7788,-0.7721,-0.7691,-0.7615,-0.7572,-0.7513,-0.7461,-0.7476,-0.736,-0.737,-0.7331,-0.7332,-0.7306,-0.7308,-0.723,-0.7285,-0.7285,-0.7285,-0.7285,0,-0.8223,-0.8162,-0.8093,-0.8047,-0.7976,-0.7928,-0.7858,-0.7815,-0.7755,-0.7696,-0.7663,-0.7608,-0.7545,-0.7481,-0.744,-0.7358,-0.7339,-0.7312,-0.7301,-0.7313,-0.7316,-0.7283,-0.7285,-0.7282,-0.7283,-0.7283,-0.7284,0,-0.819,-0.8142,-0.8058,-0.7979,-0.7957,-0.7908,-0.7838,-0.779,-0.7748,-0.7674,-0.7653,-0.7585,-0.7508,-0.7452,-0.7351,-0.7323,-0.7234,-0.7225,-0.7259,-0.7253,-0.7217,-0.722,-0.7113,-0.7095,-0.7164,-0.7164,-0.7163,0,-0.8152,-0.8105,-0.8021,-0.7982,-0.7942,-0.7878,-0.7833,-0.7784,-0.7738,-0.7654,-0.7615,-0.7537,-0.7471,-0.7348,-0.7287,-0.7209,-0.7195,-0.7163,-0.7183,-0.7196,-0.7191,-0.7194,-0.7187,-0.7159,-0.7159,-0.7159,-0.7158,0,-0.8089,-0.8068,-0.8006,-0.7936,-0.7884,-0.7825,-0.7765,-0.7734,-0.7673,-0.7622,-0.7545,-0.7494,-0.7393,-0.7313,-0.723,-0.7183,-0.7159,-0.7153,-0.7139,-0.715,-0.717,-0.7156,-0.7248,-0.7155,-0.7155,-0.7156,-0.7156,-0.7156,-0.805,-0.8006,-0.794,-0.7872,-0.7823,-0.7768,-0.7718,-0.7671,-0.7606,-0.7522,-0.7496,-0.7415,-0.7343,-0.7229,-0.7182,-0.7115,-0.7115,-0.7097,-0.7091,-0.7086,-0.7086,-0.7184,-0.71,-0.71,-0.71,-0.71,-0.71,0,-0.7983,-0.794,-0.7878,-0.7797,-0.7742,-0.7729,-0.7662,-0.7616,-0.7546,-0.7484,-0.742,-0.733,-0.7253,-0.7186,-0.7105,-0.7064,-0.7051,-0.7044,-0.7045,-0.7034,-0.7091,-0.711,-0.7056,-0.7056,-0.7056,-0.7056,-0.7056,-0.7056,-0.7941,-0.7865,-0.7836,-0.7733,-0.7689,-0.7612,-0.7574,-0.7522,-0.7472,-0.7373,-0.731,-0.7269,-0.7203,-0.7118,-0.7045,-0.7027,-0.6997,-0.6993,-0.6972,-0.7025,-0.703,-0.7035,-0.7052,-0.6987,-0.6987,-0.692,-0.6919,-0.6919]},{"header":{"parameterUnit":"m.s-1","parameterCategory":1,"la1":30.2991,"la2":30.254,"lo1":-89.0895,"lo2":-89.0444,"dy":0.0017,"dx":0.0017,"nx":28,"ny":28,"refTime":"2025-07-28T03:00:00:Z","depth":0,"parameterNumber":3,"parameterNumberName":"V-component_of_WINDS"},"data":[0,0,0,0,0,0,0,0,0,0,0,0,0,0,0,0,0,0,0,0,0,0,0,0,0,0,0,0,0,0,0,0,0,0,0,0,0,0,0,0,0,0,0,0,0,0,0,0,0,0,0,0,0,0,0,0,0,0,1.6869,1.6869,0,1.6876,1.6876,1.6876,1.6801,1.6799,1.6797,1.6795,1.68,1.6802,1.6804,0,0,0,0,0,0,0,0,0,0,0,0,0,1.6791,1.6793,1.6869,1.6869,1.6869,1.6876,1.6876,1.6876,1.6802,1.6799,1.6797,1.6794,1.68,1.6802,1.6805,0,0,0,0,0,0,0,0,0,0,0,0,0,1.6814,1.6794,1.6869,1.6833,1.683,1.6876,1.6876,1.6876,1.6802,1.6799,1.6796,1.6793,1.6799,1.6802,1.6805,1.6885,0,0,1.6814,1.6816,0,0,0,0,0,0,0,0,1.6813,1.6817,1.6838,1.6836,1.6832,1.6835,1.685,1.6879,1.6803,1.6813,1.6795,1.6792,1.6814,1.6816,1.6824,1.6885,1.6885,1.6815,1.6816,1.6818,1.6819,0,0,0,0,0,0,0,1.6811,1.6816,1.6872,1.6839,1.6835,1.6816,1.6816,1.6855,1.683,1.6812,1.6806,1.6808,1.6812,1.6821,1.6823,1.6885,1.6814,1.6817,1.6819,1.682,1.701,1.7013,0,0,0,0,0,0,1.6815,1.6816,1.6871,1.6872,1.6815,1.682,1.682,1.6837,1.683,1.6826,1.6811,1.6805,1.6817,1.682,1.6823,1.6914,1.6818,1.682,1.6822,1.7007,1.7011,1.7014,0,0,0,0,0,0,1.6814,1.6821,1.6871,1.6842,1.6847,1.6825,1.6844,1.6839,1.6847,1.6829,1.6824,1.6824,1.6815,1.6819,1.6869,1.6913,1.6822,1.6825,1.7003,1.7008,1.7013,1.7098,0,0,0,0,0,0,1.6812,1.6821,1.6851,1.6844,1.6849,1.6918,1.6847,1.6841,1.6853,1.6845,1.6841,1.6837,1.6813,1.6865,1.6873,1.6916,1.6827,1.6999,1.7005,1.7011,1.7091,1.7105,1.7117,0,0,0,0,0,1.6809,1.6875,1.6853,1.686,1.6887,1.6921,1.6924,1.6895,1.6857,1.6887,1.6875,1.6837,1.6908,1.6871,1.6879,1.6923,1.6996,1.7004,1.7011,1.7085,1.7102,1.7116,0,0,0,0,0,0,1.6888,1.6873,1.6849,1.6914,1.6919,1.6908,1.6945,1.6915,1.693,1.6922,1.6885,1.6885,1.6941,1.6938,1.6897,1.6999,1.6945,1.6954,1.6999,1.7015,1.7028,1.7026,1.683,0,0,0,0,0,1.6913,1.6942,1.6928,1.6987,1.6991,1.6968,1.6982,1.6959,1.6963,1.6964,1.6956,1.6961,1.6984,1.7,1.702,1.7091,1.7087,1.7125,1.7138,1.7149,1.7156,1.7191,1.7207,1.7038,1.7038,1.7038,0,0,1.6965,1.696,1.6981,1.7003,1.7004,1.7034,1.697,1.7005,1.7027,1.697,1.7016,1.7011,1.7014,1.7074,1.71,1.7073,1.7203,1.7158,1.7167,1.7168,1.7201,1.7217,1.7231,1.7043,1.7042,1.7041,0,0,1.7074,1.7075,1.7123,1.7126,1.7128,1.7113,1.7125,1.7118,1.7112,1.7159,1.7116,1.7142,1.7183,1.7185,1.7192,1.7303,1.7268,1.7311,1.7378,1.7413,1.7426,1.7437,1.7475,1.7489,1.7319,1.7319,1.7319,0,1.7137,1.7182,1.7151,1.7189,1.7199,1.7149,1.7197,1.7201,1.7211,1.7218,1.7188,1.7237,1.7236,1.7295,1.7322,1.7331,1.7341,1.731,1.7427,1.7438,1.7448,1.7483,1.7498,1.7324,1.7324,1.7323,1.7323,0,1.7259,1.729,1.7329,1.7339,1.7354,1.7397,1.7372,1.739,1.7367,1.7354,1.7402,1.7398,1.7416,1.7429,1.7407,1.7486,1.7468,1.7433,1.7377,1.747,1.7502,1.7515,1.7331,1.733,1.7328,1.7327,0,0,1.7416,1.7409,1.7423,1.7426,1.7426,1.745,1.749,1.7508,1.7523,1.7532,1.7564,1.76,1.7567,1.7575,1.7552,1.7584,1.7669,1.7544,1.7543,1.7565,1.7753,1.7778,1.7794,1.7647,1.7649,1.7651,1.7752,0,1.752,1.7588,1.7562,1.7631,1.7659,1.7613,1.7647,1.7651,1.764,1.7662,1.765,1.7675,1.7631,1.7635,1.7664,1.7652,1.7705,1.7645,1.7674,1.7675,1.7672,1.7811,1.7837,1.7932,1.7765,1.7767,1.7768,0,1.765,1.7664,1.7736,1.773,1.7741,1.7772,1.7786,1.7808,1.781,1.78,1.781,1.778,1.7818,1.7765,1.7816,1.7776,1.7787,1.7783,1.7786,1.7785,1.7726,1.7812,1.7962,1.7975,1.7788,1.7787,1.7785,0,1.7754,1.7791,1.7838,1.7843,1.7838,1.7861,1.786,1.7859,1.7872,1.7884,1.7891,1.7908,1.7916,1.793,1.7905,1.7869,1.7959,1.7904,1.7951,1.7951,1.7969,1.7968,1.8121,1.7981,1.7981,1.7981,1.798,0,1.7872,1.7917,1.7885,1.7914,1.7963,1.7933,1.7982,1.7976,1.7976,1.8003,1.7964,1.799,1.7957,1.798,1.7961,1.8005,1.801,1.8002,1.7996,1.8004,1.8005,1.8008,1.8,1.7984,1.7984,1.7983,1.7982,0,1.7995,1.7976,1.8024,1.8015,1.8014,1.8051,1.8043,1.8069,1.8056,1.809,1.8096,1.8076,1.81,1.8078,1.8101,1.8088,1.8146,1.8132,1.8145,1.814,1.8187,1.8182,1.8346,1.8365,1.8215,1.8216,1.8218,0,1.807,1.8104,1.8099,1.8114,1.8115,1.814,1.8152,1.8123,1.8137,1.8143,1.8168,1.8189,1.8204,1.8245,1.8232,1.8249,1.8233,1.829,1.8235,1.8242,1.8231,1.8228,1.8231,1.83,1.8301,1.8303,1.8304,0,1.8204,1.8193,1.8212,1.8228,1.8243,1.8254,1.8262,1.8277,1.8247,1.8265,1.8289,1.8301,1.8324,1.8345,1.8358,1.8356,1.8325,1.8322,1.8333,1.834,1.8345,1.834,1.8172,1.8317,1.8316,1.8315,1.8314,1.8314,1.8304,1.8331,1.8331,1.8354,1.8357,1.8365,1.8388,1.8379,1.8399,1.8415,1.8398,1.8427,1.8428,1.8442,1.8444,1.8466,1.8442,1.8459,1.8463,1.8467,1.8472,1.8344,1.8469,1.8468,1.8468,1.8468,1.8467,0,1.8434,1.8432,1.8453,1.8465,1.8482,1.8452,1.846,1.8476,1.8502,1.8506,1.8521,1.8548,1.8568,1.8558,1.8574,1.8594,1.858,1.8599,1.8596,1.8596,1.8494,1.8481,1.861,1.861,1.861,1.861,1.861,1.861,1.8503,1.8547,1.8536,1.8581,1.8578,1.8606,1.8613,1.862,1.8622,1.8655,1.8671,1.8664,1.8662,1.8678,1.8695,1.8691,1.8698,1.8722,1.8713,1.8617,1.8603,1.859,1.8578,1.8724,1.8725,1.8813,1.8813,1.8814]}]]